GXA1 PANC-PAJN

Flight info

Callsign GXA1
Flight time 1h 10m
Altitude 33000
Route JOH J501 YAK FAKES ASORT
Aircraft A320/M-SDE3FGHIRWY/LB1

Departure

Time 2026-04-24 00:23
Airport Ted Stevens Anchorage International Airport (PANC)

Arrival

Time 2026-04-24 01:33
Airport Juneau International Airport (PAJN)
Time Latitude Longitude Altitude Speed Heading
2026-04-24 00:14 61.17863 -149.99432 104 ft 0 kts 69°
2026-04-24 00:18 61.17864 -149.99425 103 ft 3 kts 69°
2026-04-24 00:18 61.17866 -149.99355 104 ft 6 kts 100°
2026-04-24 00:18 61.17817 -149.99269 105 ft 13 kts 161°
2026-04-24 00:18 61.17725 -149.99166 104 ft 17 kts 131°
2026-04-24 00:19 61.17616 -149.99065 103 ft 17 kts 160°
2026-04-24 00:19 61.17508 -149.98984 105 ft 16 kts 160°
2026-04-24 00:19 61.17411 -149.98910 106 ft 14 kts 159°
2026-04-24 00:19 61.17332 -149.98849 107 ft 11 kts 160°
2026-04-24 00:20 61.17252 -149.98790 111 ft 15 kts 160°
2026-04-24 00:20 61.17137 -149.98707 112 ft 19 kts 161°
2026-04-24 00:20 61.17001 -149.98596 116 ft 20 kts 138°
2026-04-24 00:20 61.16979 -149.98296 114 ft 26 kts 91°
2026-04-24 00:21 61.16980 -149.97847 113 ft 33 kts 89°
2026-04-24 00:21 61.16980 -149.97367 107 ft 34 kts 90°
2026-04-24 00:21 61.16977 -149.96916 101 ft 24 kts 95°
2026-04-24 00:21 61.16896 -149.96795 96 ft 15 kts 243°
2026-04-24 00:22 61.16883 -149.96987 100 ft 14 kts 256°
2026-04-24 00:22 61.16826 -149.97302 108 ft 30 kts 248°
2026-04-24 00:22 61.16788 -149.97849 115 ft 61 kts 270°
2026-04-24 00:22 61.16785 -149.99207 125 ft 124 kts 270°
2026-04-24 00:23 61.16786 -150.01360 199 ft 166 kts 270°
2026-04-24 00:23 61.16818 -150.03708 880 ft 161 kts 272°
2026-04-24 00:23 61.16742 -150.06034 1392 ft 173 kts 243°
2026-04-24 00:23 61.15964 -150.07856 1917 ft 170 kts 206°
2026-04-24 00:24 61.14804 -150.08486 2205 ft 182 kts 171°
2026-04-24 00:24 61.13611 -150.07420 2426 ft 201 kts 134°
2026-04-24 00:24 61.12894 -150.04795 2722 ft 224 kts 112°
2026-04-24 00:24 61.12344 -150.01637 3290 ft 238 kts 111°
2026-04-24 00:25 61.11796 -149.98370 4113 ft 243 kts 112°
2026-04-24 00:25 61.11234 -149.95036 4937 ft 248 kts 113°
2026-04-24 00:25 61.10653 -149.91629 5698 ft 254 kts 114°
2026-04-24 00:25 61.10055 -149.88147 6470 ft 260 kts 114°
2026-04-24 00:26 61.09442 -149.84584 7223 ft 265 kts 114°
2026-04-24 00:26 61.08821 -149.80971 8016 ft 269 kts 114°
2026-04-24 00:26 61.08191 -149.77310 8837 ft 272 kts 114°
2026-04-24 00:26 61.07551 -149.73614 9628 ft 274 kts 114°
2026-04-24 00:27 61.06897 -149.69882 10308 ft 282 kts 115°
2026-04-24 00:27 61.06196 -149.65934 10486 ft 304 kts 114°
2026-04-24 00:27 61.05441 -149.61677 10657 ft 327 kts 114°
2026-04-24 00:27 61.04632 -149.57113 10822 ft 350 kts 116°
2026-04-24 00:28 61.03780 -149.52325 11099 ft 367 kts 112°
2026-04-24 00:28 61.02902 -149.47315 11679 ft 373 kts 114°
2026-04-24 00:28 61.02016 -149.42258 12343 ft 377 kts 116°
2026-04-24 00:28 61.01119 -149.37158 12963 ft 380 kts 115°
2026-04-24 00:29 61.00209 -149.32009 13620 ft 384 kts 115°
2026-04-24 00:29 60.99282 -149.26817 14242 ft 388 kts 116°
2026-04-24 00:29 60.98340 -149.21571 14781 ft 392 kts 116°
2026-04-24 00:29 60.97389 -149.16289 15295 ft 396 kts 116°
2026-04-24 00:30 60.96425 -149.10943 15804 ft 401 kts 116°
2026-04-24 00:30 60.95449 -149.05540 16358 ft 405 kts 116°
2026-04-24 00:30 60.94456 -149.00073 16876 ft 409 kts 117°
2026-04-24 00:30 60.93458 -148.94572 17306 ft 413 kts 117°
2026-04-24 00:31 60.92447 -148.89007 17718 ft 418 kts 117°
2026-04-24 00:31 60.91421 -148.83383 18181 ft 422 kts 117°
2026-04-24 00:31 60.90384 -148.77716 18671 ft 425 kts 118°
2026-04-24 00:31 60.89333 -148.72010 19063 ft 429 kts 118°
2026-04-24 00:32 60.88270 -148.66262 19499 ft 432 kts 118°
2026-04-24 00:32 60.87198 -148.60492 19927 ft 435 kts 118°
2026-04-24 00:32 60.86112 -148.54653 20349 ft 438 kts 118°
2026-04-24 00:32 60.85016 -148.48781 20768 ft 442 kts 118°
2026-04-24 00:33 60.83926 -148.42945 21159 ft 445 kts 118°
2026-04-24 00:33 60.82814 -148.36987 21504 ft 448 kts 118°
2026-04-24 00:33 60.81695 -148.31006 21812 ft 451 kts 118°
2026-04-24 00:33 60.80564 -148.24989 22142 ft 454 kts 118°
2026-04-24 00:34 60.79421 -148.18932 22487 ft 457 kts 118°
2026-04-24 00:34 60.78264 -148.12825 22851 ft 460 kts 118°
2026-04-24 00:34 60.77101 -148.06702 23211 ft 463 kts 118°
2026-04-24 00:34 60.75929 -148.00551 23530 ft 466 kts 118°
2026-04-24 00:35 60.74741 -147.94356 23843 ft 468 kts 118°
2026-04-24 00:35 60.73559 -147.88217 24112 ft 470 kts 119°
2026-04-24 00:35 60.72357 -147.81983 24367 ft 473 kts 119°
2026-04-24 00:35 60.71146 -147.75708 24615 ft 475 kts 119°
2026-04-24 00:36 60.69934 -147.69435 24856 ft 476 kts 119°
2026-04-24 00:36 60.68709 -147.63117 25055 ft 478 kts 119°
2026-04-24 00:36 60.67483 -147.56806 25289 ft 479 kts 119°
2026-04-24 00:36 60.66248 -147.50476 25518 ft 481 kts 119°
2026-04-24 00:37 60.65002 -147.44129 25701 ft 483 kts 119°
2026-04-24 00:37 60.63757 -147.37826 25898 ft 484 kts 120°
2026-04-24 00:37 60.62491 -147.31438 26097 ft 486 kts 120°
2026-04-24 00:37 60.61218 -147.25026 26310 ft 488 kts 120°
2026-04-24 00:38 60.59944 -147.18614 26519 ft 489 kts 120°
2026-04-24 00:38 60.58669 -147.12204 26803 ft 488 kts 120°
2026-04-24 00:38 60.57393 -147.05802 27023 ft 488 kts 119°
2026-04-24 00:38 60.56112 -146.99392 27215 ft 491 kts 120°
2026-04-24 00:39 60.54833 -146.93025 27376 ft 493 kts 120°
2026-04-24 00:39 60.53531 -146.86576 27636 ft 494 kts 120°
2026-04-24 00:39 60.52224 -146.80126 27941 ft 494 kts 120°
2026-04-24 00:39 60.50908 -146.73672 28245 ft 494 kts 120°
2026-04-24 00:40 60.49590 -146.67238 28532 ft 494 kts 120°
2026-04-24 00:40 60.48318 -146.60762 28835 ft 498 kts 116°
2026-04-24 00:40 60.47417 -146.53913 29192 ft 505 kts 109°
2026-04-24 00:40 60.46658 -146.46953 29542 ft 505 kts 109°
2026-04-24 00:41 60.45893 -146.39993 29783 ft 506 kts 109°
2026-04-24 00:41 60.45118 -146.33028 29979 ft 508 kts 109°
2026-04-24 00:41 60.44335 -146.26044 30248 ft 509 kts 109°
2026-04-24 00:41 60.43547 -146.19057 30504 ft 509 kts 109°
2026-04-24 00:42 60.42756 -146.12068 30731 ft 509 kts 109°
2026-04-24 00:42 60.41969 -146.05160 30945 ft 510 kts 110°
2026-04-24 00:42 60.41169 -145.98167 31174 ft 510 kts 110°
2026-04-24 00:42 60.40364 -145.91163 31382 ft 511 kts 110°
2026-04-24 00:43 60.39555 -145.84160 31594 ft 511 kts 110°
2026-04-24 00:43 60.38738 -145.77137 31810 ft 512 kts 110°
2026-04-24 00:43 60.37914 -145.70110 31972 ft 514 kts 109°
2026-04-24 00:43 60.37079 -145.63053 32161 ft 515 kts 109°
2026-04-24 00:44 60.36243 -145.56010 32400 ft 516 kts 109°
2026-04-24 00:44 60.35415 -145.49058 32613 ft 516 kts 109°
2026-04-24 00:44 60.34574 -145.42003 32833 ft 517 kts 109°
2026-04-24 00:44 60.33727 -145.34950 33053 ft 517 kts 109°
2026-04-24 00:45 60.32875 -145.27893 33276 ft 518 kts 109°
2026-04-24 00:45 60.32020 -145.20829 33428 ft 520 kts 109°
2026-04-24 00:45 60.30283 -145.06555 33436 ft 526 kts 109°
2026-04-24 00:46 60.28532 -144.92241 33424 ft 523 kts 109°
2026-04-24 00:46 60.26763 -144.78031 33451 ft 522 kts 109°
2026-04-24 00:47 60.24983 -144.63917 33435 ft 521 kts 109°
2026-04-24 00:47 60.23186 -144.49769 33446 ft 521 kts 109°
2026-04-24 00:48 60.21376 -144.35614 33414 ft 521 kts 109°
2026-04-24 00:48 60.19574 -144.21612 33457 ft 519 kts 109°
2026-04-24 00:49 60.17748 -144.07584 33461 ft 517 kts 109°
2026-04-24 00:49 60.15906 -143.93638 33459 ft 516 kts 109°
2026-04-24 00:50 60.14065 -143.79770 33457 ft 516 kts 109°
2026-04-24 00:50 60.12199 -143.65871 33452 ft 515 kts 109°
2026-04-24 00:51 60.10637 -143.54309 33453 ft 515 kts 109°
2026-04-24 00:51 60.08751 -143.40422 33453 ft 515 kts 109°
2026-04-24 00:52 60.06840 -143.26575 33457 ft 515 kts 110°
2026-04-24 00:52 60.04929 -143.12819 33465 ft 515 kts 110°
2026-04-24 00:53 60.03004 -142.98987 33437 ft 515 kts 109°
2026-04-24 00:53 60.01062 -142.85197 33468 ft 514 kts 110°
2026-04-24 00:54 59.99108 -142.71468 33479 ft 513 kts 110°
2026-04-24 00:54 59.97148 -142.57816 33482 ft 513 kts 110°
2026-04-24 00:55 59.95169 -142.44125 33485 ft 513 kts 110°
2026-04-24 00:55 59.93182 -142.30465 33465 ft 512 kts 110°
2026-04-24 00:56 59.91179 -142.16839 33490 ft 511 kts 110°
2026-04-24 00:56 59.89155 -142.03242 33494 ft 510 kts 110°
2026-04-24 00:57 59.87138 -141.89794 33500 ft 510 kts 110°
2026-04-24 00:58 59.84083 -141.69519 33472 ft 509 kts 110°
2026-04-24 00:58 59.82032 -141.56019 33488 ft 509 kts 110°
2026-04-24 00:59 59.79962 -141.42566 33499 ft 508 kts 111°
2026-04-24 00:59 59.77892 -141.29238 33504 ft 508 kts 111°
2026-04-24 01:00 59.75800 -141.15831 33508 ft 508 kts 111°
2026-04-24 01:00 59.73696 -141.02452 33481 ft 508 kts 111°
2026-04-24 01:01 59.71578 -140.89072 33516 ft 508 kts 111°
2026-04-24 01:01 59.69441 -140.75716 33518 ft 508 kts 111°
2026-04-24 01:02 59.67290 -140.62337 33525 ft 508 kts 111°
2026-04-24 01:02 59.65141 -140.49101 33524 ft 508 kts 111°
2026-04-24 01:03 59.62965 -140.35800 33510 ft 508 kts 111°
2026-04-24 01:03 59.60774 -140.22521 33524 ft 507 kts 111°
2026-04-24 01:04 59.58579 -140.09291 33538 ft 506 kts 111°
2026-04-24 01:04 59.56389 -139.96176 33537 ft 506 kts 111°
2026-04-24 01:05 59.54170 -139.82986 33536 ft 506 kts 111°
2026-04-24 01:05 59.51942 -139.69847 33516 ft 505 kts 111°
2026-04-24 01:06 59.49041 -139.57383 33517 ft 498 kts 122°
2026-04-24 01:06 59.45719 -139.45416 33519 ft 498 kts 122°
2026-04-24 01:07 59.42417 -139.33562 33519 ft 497 kts 122°
2026-04-24 01:07 59.39083 -139.21653 33519 ft 497 kts 122°
2026-04-24 01:08 59.35741 -139.09792 33501 ft 496 kts 122°
2026-04-24 01:08 59.32388 -138.97990 33512 ft 495 kts 122°
2026-04-24 01:09 59.29022 -138.86204 33516 ft 495 kts 122°
2026-04-24 01:09 59.25677 -138.74510 33517 ft 496 kts 122°
2026-04-24 01:10 59.22298 -138.62742 33502 ft 495 kts 122°
2026-04-24 01:10 59.18909 -138.51019 33508 ft 495 kts 122°
2026-04-24 01:11 59.15533 -138.39398 33523 ft 495 kts 122°
2026-04-24 01:11 59.12127 -138.27731 33518 ft 495 kts 122°
2026-04-24 01:12 59.08707 -138.16088 33512 ft 495 kts 122°
2026-04-24 01:12 59.05275 -138.04465 33493 ft 495 kts 122°
2026-04-24 01:13 59.01866 -137.92943 33498 ft 495 kts 122°
2026-04-24 01:13 58.98415 -137.81390 33502 ft 494 kts 122°
2026-04-24 01:14 58.94961 -137.69864 33486 ft 494 kts 122°
2026-04-24 01:14 58.91500 -137.58360 33473 ft 494 kts 122°
2026-04-24 01:15 58.88030 -137.46886 33464 ft 494 kts 122°
2026-04-24 01:15 58.84552 -137.35433 33262 ft 495 kts 122°
2026-04-24 01:15 58.82804 -137.29696 32993 ft 495 kts 122°
2026-04-24 01:16 58.81053 -137.23959 32186 ft 498 kts 122°
2026-04-24 01:16 58.79274 -137.18147 31015 ft 504 kts 122°
2026-04-24 01:16 58.77508 -137.12398 29852 ft 507 kts 122°
2026-04-24 01:16 58.75696 -137.06525 28638 ft 509 kts 122°
2026-04-24 01:17 58.73887 -137.00671 27483 ft 508 kts 122°
2026-04-24 01:17 58.72683 -136.96784 26600 ft 510 kts 122°
2026-04-24 01:17 58.72605 -136.96532 26540 ft 510 kts 122°
2026-04-24 01:18 58.70643 -136.90611 25137 ft 513 kts 124°
2026-04-24 01:18 58.68744 -136.84698 23891 ft 513 kts 122°
2026-04-24 01:18 58.66982 -136.78956 22871 ft 496 kts 122°
2026-04-24 01:18 58.65296 -136.73336 22055 ft 475 kts 122°
2026-04-24 01:19 58.63669 -136.67923 21211 ft 459 kts 122°
2026-04-24 01:19 58.62056 -136.62645 20424 ft 457 kts 123°
2026-04-24 01:19 58.60435 -136.57442 19616 ft 452 kts 123°
2026-04-24 01:19 58.58813 -136.52311 18811 ft 447 kts 123°
2026-04-24 01:20 58.57203 -136.47253 17836 ft 444 kts 123°
2026-04-24 01:20 58.55598 -136.42232 16813 ft 441 kts 123°
2026-04-24 01:20 58.54013 -136.37274 16067 ft 432 kts 123°
2026-04-24 01:20 58.53485 -136.35621 15846 ft 429 kts 123°
2026-04-24 01:21 58.52238 -136.31694 15282 ft 422 kts 123°
2026-04-24 01:21 58.50723 -136.26938 14645 ft 414 kts 123°
2026-04-24 01:21 58.49230 -136.22269 13981 ft 409 kts 123°
2026-04-24 01:21 58.47742 -136.17636 13353 ft 407 kts 123°
2026-04-24 01:22 58.46283 -136.13100 12752 ft 404 kts 123°
2026-04-24 01:22 58.44816 -136.08543 12149 ft 401 kts 123°
2026-04-24 01:22 58.43361 -136.04026 11547 ft 397 kts 123°
2026-04-24 01:22 58.41931 -135.99593 11300 ft 384 kts 122°
2026-04-24 01:23 58.40562 -135.95356 11216 ft 367 kts 122°
2026-04-24 01:23 58.39249 -135.91291 11082 ft 353 kts 123°
2026-04-24 01:23 58.37984 -135.87367 10930 ft 341 kts 121°
2026-04-24 01:23 58.36988 -135.83337 10779 ft 331 kts 110°
2026-04-24 01:24 58.36406 -135.79175 10637 ft 320 kts 98°
2026-04-24 01:24 58.36219 -135.75025 10500 ft 309 kts 89°
2026-04-24 01:24 58.36211 -135.70996 10359 ft 300 kts 89°
2026-04-24 01:24 58.36196 -135.67087 10219 ft 288 kts 89°
2026-04-24 01:25 58.36175 -135.63390 10102 ft 271 kts 89°
2026-04-24 01:25 58.36153 -135.59863 9964 ft 261 kts 89°
2026-04-24 01:25 58.36132 -135.56411 9627 ft 262 kts 89°
2026-04-24 01:25 58.36110 -135.52944 9271 ft 262 kts 89°
2026-04-24 01:26 58.36089 -135.49474 8936 ft 262 kts 89°
2026-04-24 01:26 58.36064 -135.46009 8602 ft 261 kts 90°
2026-04-24 01:26 58.36039 -135.42541 8268 ft 261 kts 90°
2026-04-24 01:26 58.36011 -135.39085 7937 ft 261 kts 90°
2026-04-24 01:27 58.35984 -135.35629 7606 ft 262 kts 90°
2026-04-24 01:27 58.35957 -135.32149 7253 ft 262 kts 91°
2026-04-24 01:27 58.35930 -135.28709 6947 ft 259 kts 90°
2026-04-24 01:27 58.35902 -135.25226 6585 ft 265 kts 90°
2026-04-24 01:28 58.35871 -135.21711 6245 ft 266 kts 90°
2026-04-24 01:28 58.35838 -135.18207 5921 ft 264 kts 90°
2026-04-24 01:28 58.35806 -135.14777 5599 ft 261 kts 90°
2026-04-24 01:28 58.35771 -135.11333 5248 ft 259 kts 90°
2026-04-24 01:29 58.35735 -135.07911 4949 ft 257 kts 90°
2026-04-24 01:29 58.35699 -135.04529 4611 ft 254 kts 90°
2026-04-24 01:29 58.35665 -135.01190 4319 ft 250 kts 91°
2026-04-24 01:29 58.35651 -134.97903 4023 ft 247 kts 90°
2026-04-24 01:30 58.35663 -134.94658 3732 ft 243 kts 89°
2026-04-24 01:30 58.35683 -134.91463 3415 ft 241 kts 89°
2026-04-24 01:30 58.35700 -134.88283 3069 ft 239 kts 89°
2026-04-24 01:30 58.35716 -134.85121 2716 ft 238 kts 89°
2026-04-24 01:31 58.35730 -134.81977 2421 ft 238 kts 90°
2026-04-24 01:31 58.35745 -134.78826 2243 ft 238 kts 90°
2026-04-24 01:31 58.35754 -134.75706 1973 ft 233 kts 90°
2026-04-24 01:31 58.35760 -134.72639 1518 ft 229 kts 90°
2026-04-24 01:32 58.35772 -134.69711 1113 ft 212 kts 89°
2026-04-24 01:32 58.35813 -134.67011 1009 ft 195 kts 87°
2026-04-24 01:32 58.35913 -134.64555 846 ft 178 kts 84°
2026-04-24 01:32 58.35988 -134.62284 610 ft 165 kts 90°
2026-04-24 01:33 58.35838 -134.60156 138 ft 157 kts 101°
2026-04-24 01:33 58.35594 -134.58319 32 ft 121 kts 105°
2026-04-24 01:33 58.35441 -134.57233 35 ft 50 kts 105°
2026-04-24 01:33 58.35381 -134.56798 33 ft 27 kts 105°
2026-04-24 01:34 58.35426 -134.56679 34 ft 13 kts 12°
2026-04-24 01:34 58.35487 -134.56761 34 ft 12 kts 290°
2026-04-24 01:34 58.35549 -134.56786 34 ft 10 kts 28°
2026-04-24 01:34 58.35548 -134.56671 33 ft 7 kts 109°
2026-04-24 01:35 58.35547 -134.56665 33 ft 0 kts 109°